Other Public Products
Issued by NWS Charleston, SC

Current Version | Previous Version | Graphics & Text | Print | Product List | Glossary On
Versions: 1 2 3 4 5 6 7 8 9 10 11 12 13 14 15 16 17 18 19 20 21 22 23 24 25 26 27 28 29 30 31 32 33 34 35 36 37 38 39 40 41 42 43 44 45 46 47 48 49 50
792 FPUS82 KCHS 221412 OPUCHS TEST...KCHS/KSAV Gateway Observations...TEST National Weather Service Charleston SC 900 AM EST WED NOV 22 2017 NOTE: "fair" indicates few or no clouds below 12,000 feet with no significant weather and/or obstructions to visibility. SCZ050-WAZ558-NCZ071-TXZ119-213-PAZ071-DCZ001-FLZ074-172-MI076- NYZ176-178-MAZ016-IL014-TNZ027-NJZ106-GAZ044-MD014-221500- ...Gateway Observations for Charleston International... CITY SKY/WX TMP DP RH WIND PRES REMARKS Chas Airport CLOUDY 59 59 100 N7 30.02R Seattle CLOUDY 58 56 93 CALM 29.96S Charlotte MOSUNNY 52 49 89 N6 30.03R Dallas DFW MOCLDY 42 19 39 N15 30.37R Dallas Love CLOUDY 41 18 39 N13 30.39R Philladelphia CLOUDY 53 49 86 W6 29.91F Wash National CLOUDY 57 38 48 NW10G20 29.97R Baltimore CLOUDY 54 40 59 W10 29.95R Miami MOSUNNY 78 71 79 NE3 29.96R Detroit PTSUNNY 32 16 51 NW10 30.27R WCI 24 Newark LGT RAIN 50 47 89 NW6 29.90F Laguardia LGT RAIN 55 51 86 NW7 29.89S J F K LGT RAIN 53 53 100 W7 29.91S Boston Logan LGT RAIN 51 51 100 CALM 29.94F FOG Ft. Lauderdale MOSUNNY 76 73 91 NW3 29.95R Chicago O`Hare MOSUNNY 24 15 68 NW7 30.33S WCI 16 Chicago Midway MOSUNNY 25 16 68 NW6 30.34S WCI 18 Houston Bush MOSUNNY 58 53 84 N15 30.22R Houston Hobby PTSUNNY 58 54 86 N18 30.21R Nashville MOSUNNY 35 25 66 N12 30.30R WCI 27 Atlanta MOSUNNY 50 42 74 NW12 30.07R $$ GAZ044-118-TXZ119-213-NCZ071-DCZ001-MDZ014-506-PAZ021-071-NJZ106- NYZ176-178-MAZ106-OHZ011-021-055-MIZ076-KYZ091-ILZ014-INZ047- MNZ060-ONZ431-221500- ...Gateway Observations for Savannah International... CITY SKY/WX TMP DP RH WIND PRES REMARKS Savannah Arpt FOG 59 59 100 NW8 30.04R VSB 1/2 Atlanta MOSUNNY 50 42 74 NW12 30.07R Charlotte MOSUNNY 52 49 89 N6 30.03R Dallas DFW MOCLDY 42 19 39 N15 30.37R Houston Bush MOSUNNY 58 53 84 N15 30.22R Wash National CLOUDY 57 38 48 NW10G20 29.97R Wash Dulles PTSUNNY 54 36 50 NW20 29.97R Baltimore CLOUDY 54 40 59 W10 29.95R Philadelphia CLOUDY 53 49 86 W6 29.91F Newark LGT RAIN 50 47 89 NW6 29.90F Laguardia LGT RAIN 55 51 86 NW7 29.89S J F K LGT RAIN 53 53 100 W7 29.91S Boston LGT RAIN 51 51 100 CALM 29.94F FOG Pittsburg FLURRIES 34 32 92 N13 30.14R WCI 25 Akron CLOUDY 33 26 75 NW8 30.18R WCI 26 Cleveland CLOUDY 34 24 67 NW12 30.23R WCI 25 Cincinnati CLOUDY 31 26 82 NW6 30.28R WCI 25 Columbus CLOUDY 33 26 74 N7 30.25R WCI 27 Detroit PTSUNNY 32 16 51 NW10 30.27R WCI 24 Chicago O`Hare MOSUNNY 24 15 68 NW7 30.33S WCI 16 Minneapolis CLOUDY 16 12 84 SW5 30.34R WCI 9 Indianapolis MOSUNNY 27 20 75 NW12 30.33R WCI 17 Toronto Canada PTSUNNY 32 19 59 NW18 30.13R WCI 20 $$

USA.gov is the U.S. government's official web portal to all federal, state and local government web resources and services.